Tracking 19817 objects as of 19-Aug-2019
HD Live streaming from Space Station
objects crossing your sky now

SL-18 DEB

Track SL-18 DEB now!
10-day predictions


NORAD ID: 28292
Int'l Code: 1993-014V
Perigee: 669.8 km
Apogee: 885.7 km
Inclination: 75.8 °
Period: 100.3 minutes
Semi major axis: 7148 km
RCS: 0.016 m2 (small)
Launch date: March 25, 1993
Source: Commonwealth of Independent States (former USSR) (CIS)
Launch site: PLESETSK MISSILE AND SPACE COMPLEX (PKMTR)

Note: This is SATELLITE DEBRIS
aabbcc
Your satellite tracking list
Your tracking list is empty




NASA's NSSDC Master Catalog

Two Line Element Set (TLE):
1 28292U 93014V   19231.56946984  .00000191  00000-0  61611-4 0  9997
2 28292  75.7592 200.6249 0150960 152.9152 207.9992 14.36340346861387
Source of the keplerian elements: AFSPC